User: anonymous   Login
Location: Unspecified
(0.0000°N, 0.0000°E)
Time: 21:56:26
(UTC+00:00)
Language:

STARLINK-30784 - Orbit

View from above orbital plane
View from above orbital plane
View from above satellite
View from above satellite

Ground track
Ground track

The orbit is defined by the following mean orbital elements,

1 58156U          26145.42768167 +.00000000 +00000-0 +65212-4 0 00007
2 58156  53.1612 223.4861 0000994  55.6148 304.4946 15.30189471    01
Epoch (UTC): 25 May 2026 10:15:51
Eccentricity: 0.0000994
inclination: 53.1612°
perigee height: 475 km
apogee height: 476 km
right ascension of ascending node: 223.4861°
argument of perigee: 55.6148°
revolutions per day: 15.30189471
mean anomaly at epoch: 304.4946°

The dashed part of the orbit path shows where the satellite is in the earth's shadow,  

DLR